[[{"header":{"parameterUnit":"m.s-1","parameterCategory":2,"la1":30.2991,"la2":30.254,"lo1":-89.0895,"lo2":-89.0444,"dy":0.0017,"dx":0.0017,"nx":28,"ny":28,"refTime":"2024-07-20T03:00:00:Z","depth":"0","parameterNumber":2,"parameterNumberName":"U-component_of_CURRENTS"},"data":[0,0,0,0,0,0,0,0,0,0,0,0,0,0,0,0,0,0,0,0,0,0,0,0,0,0,0,0,0,0,0,0,0,0,0,0,0,0,0,0,0,0,0,0,0,0,0,0,0,0,0,0,0,0,0,0,0,0,0.203,0.203,0,0.2006,0.2006,0.2005,0.1977,0.1976,0.1976,0.1976,0.1928,0.1927,0.1926,0,0,0,0,0,0,0,0,0,0,0,0,0,0.2067,0.2066,0.203,0.203,0.203,0.2006,0.2006,0.2005,0.1977,0.1976,0.1976,0.1976,0.1928,0.1927,0.1926,0,0,0,0,0,0,0,0,0,0,0,0,0,0.2046,0.2066,0.203,0.2014,0.2013,0.2006,0.2006,0.2005,0.1977,0.1976,0.1976,0.1975,0.1929,0.1927,0.1926,0.1924,0,0,0.1921,0.192,0,0,0,0,0,0,0,0,0.2047,0.2044,0.2017,0.2015,0.2014,0.1996,0.2001,0.1977,0.1977,0.1988,0.1976,0.1975,0.195,0.1947,0.194,0.1921,0.1919,0.1921,0.192,0.1919,0.1919,0,0,0,0,0,0,0,0.2049,0.2045,0.2018,0.2017,0.2015,0.2014,0.201,0.1997,0.1969,0.1987,0.1985,0.1986,0.1949,0.1942,0.1939,0.1919,0.1921,0.1919,0.1918,0.1918,0.1935,0.1936,0,0,0,0,0,0,0.2055,0.2047,0.2019,0.2018,0.2032,0.2014,0.201,0.2,0.197,0.1966,0.1987,0.1985,0.1945,0.1941,0.1937,0.1956,0.1919,0.1918,0.1917,0.1934,0.1935,0.1937,0,0,0,0,0,0,0.2056,0.2053,0.202,0.2034,0.203,0.2014,0.2003,0.2,0.1995,0.197,0.1965,0.1986,0.1944,0.1939,0.1936,0.1953,0.1917,0.1915,0.1932,0.1934,0.1936,0.198,0,0,0,0,0,0,0.2057,0.2053,0.205,0.2034,0.203,0.2021,0.2004,0.2,0.1997,0.1995,0.1968,0.1963,0.1944,0.1939,0.1935,0.195,0.1914,0.193,0.1933,0.1936,0.1976,0.1983,0.1988,0,0,0,0,0,0.2058,0.2054,0.2049,0.2046,0.2025,0.2022,0.2019,0.2005,0.1998,0.1999,0.1987,0.1964,0.1953,0.1938,0.1933,0.1949,0.1929,0.1932,0.1935,0.1974,0.1982,0.1988,0,0,0,0,0,0,0.2067,0.205,0.2045,0.2035,0.2033,0.2018,0.2017,0.201,0.2001,0.1998,0.1974,0.1969,0.1978,0.196,0.1945,0.1965,0.1941,0.1943,0.1972,0.1979,0.1985,0.1979,0.1913,0,0,0,0,0,0.207,0.206,0.2051,0.2044,0.2044,0.2033,0.203,0.2023,0.2013,0.2008,0.1993,0.1984,0.1987,0.1979,0.1976,0.1977,0.1986,0.1989,0.1995,0.2,0.1995,0.2047,0.2057,0.1947,0.1947,0.1947,0,0,0.207,0.2061,0.2055,0.2046,0.204,0.2038,0.2029,0.2028,0.2028,0.2005,0.2001,0.2004,0.1995,0.2004,0.2006,0.1988,0.2036,0.2004,0.2008,0.2,0.2051,0.2062,0.2071,0.1949,0.1949,0.1949,0,0,0.2065,0.2061,0.205,0.2051,0.2048,0.2046,0.2049,0.2041,0.204,0.2042,0.2037,0.205,0.2037,0.2041,0.2041,0.2078,0.2073,0.2082,0.2097,0.2149,0.2158,0.2166,0.2191,0.2201,0.2078,0.2078,0.2078,0,0.2066,0.2048,0.2049,0.2044,0.2044,0.2051,0.2046,0.2052,0.2045,0.2051,0.2046,0.2064,0.2056,0.2079,0.2093,0.2091,0.2113,0.2068,0.2156,0.2165,0.2172,0.2196,0.2206,0.2081,0.208,0.208,0.208,0,0.2048,0.2042,0.204,0.2033,0.2039,0.2038,0.2049,0.2059,0.2065,0.207,0.2099,0.2104,0.2114,0.2124,0.2115,0.2167,0.2164,0.2164,0.2136,0.2186,0.2208,0.2218,0.2084,0.2083,0.2083,0.2082,0,0,0.202,0.2024,0.2022,0.2021,0.2032,0.2033,0.2051,0.2065,0.2084,0.2097,0.2126,0.2142,0.2156,0.2158,0.2165,0.2203,0.2277,0.2206,0.2207,0.2226,0.2382,0.222,0.2215,0.2302,0.2304,0.2306,0.2375,0,0.2001,0.199,0.2,0.1998,0.1994,0.2019,0.2035,0.2057,0.2086,0.2122,0.2151,0.2184,0.2168,0.219,0.2226,0.2277,0.2306,0.2257,0.2333,0.2335,0.2182,0.2222,0.2113,0.2151,0.2385,0.2387,0.2388,0,0.1968,0.1968,0.1959,0.1979,0.1981,0.1988,0.2025,0.2045,0.2106,0.2134,0.2178,0.221,0.2269,0.2257,0.2349,0.2324,0.2348,0.2378,0.2382,0.2218,0.2191,0.214,0.2161,0.2135,0.2403,0.2402,0.2401,0,0.1931,0.1938,0.1931,0.1935,0.1961,0.197,0.1991,0.2043,0.2078,0.2155,0.2202,0.2263,0.2314,0.2368,0.2406,0.24,0.2505,0.2506,0.2376,0.2365,0.2275,0.225,0.227,0.2561,0.2561,0.2561,0.2561,0,0.1896,0.1891,0.1914,0.1909,0.1917,0.1947,0.1974,0.2013,0.209,0.214,0.2208,0.2263,0.2351,0.2411,0.2438,0.2423,0.2528,0.2375,0.2372,0.2283,0.226,0.2232,0.2204,0.2564,0.2563,0.2563,0.2562,0,0.1853,0.1864,0.186,0.1886,0.1896,0.1904,0.1963,0.1994,0.2073,0.2152,0.2185,0.2295,0.2351,0.2403,0.2492,0.2444,0.2374,0.2425,0.2289,0.2264,0.206,0.2037,0.1896,0.186,0.2292,0.2289,0.2286,0,0.1829,0.182,0.1839,0.1843,0.1853,0.1876,0.1897,0.1973,0.202,0.2156,0.2197,0.228,0.2313,0.2356,0.2299,0.2285,0.2253,0.2146,0.2086,0.2019,0.1997,0.1904,0.1882,0.201,0.2005,0.2001,0.1997,0,0.1791,0.1796,0.1798,0.1806,0.182,0.1841,0.1884,0.1919,0.2018,0.2086,0.2166,0.2208,0.2214,0.2136,0.2079,0.2051,0.2006,0.2052,0.2057,0.1812,0.1645,0.1619,0.1988,0.1961,0.1964,0.1967,0.1969,0.197,0.1767,0.1761,0.1766,0.1764,0.1781,0.1799,0.1798,0.1854,0.1908,0.1969,0.2059,0.2055,0.2011,0.1898,0.1861,0.1696,0.1709,0.1631,0.1626,0.1552,0.1442,0.1679,0.1585,0.1586,0.1588,0.1589,0.159,0,0.1732,0.1727,0.1728,0.1721,0.1709,0.1741,0.178,0.1766,0.1782,0.1826,0.185,0.1773,0.1671,0.1621,0.1458,0.1343,0.1299,0.1283,0.1209,0.1227,0.1527,0.1439,0.1219,0.1219,0.1219,0.1219,0.1219,0.1219,0.1717,0.1693,0.1684,0.1643,0.1639,0.1612,0.1615,0.1604,0.1614,0.1552,0.1489,0.148,0.1462,0.1308,0.1169,0.1119,0.1077,0.0904,0.0976,0.1271,0.1307,0.1341,0.1257,0.1002,0.1001,0.0644,0.0642,0.0639]},{"header":{"parameterUnit":"m.s-1","parameterCategory":2,"la1":30.2991,"la2":30.254,"lo1":-89.0895,"lo2":-89.0444,"dy":0.0017,"dx":0.0017,"nx":28,"ny":28,"refTime":"2024-07-20T03:00:00:Z","depth":"0","parameterNumber":3,"parameterNumberName":"V-component_of_CURRENTS"},"data":[0,0,0,0,0,0,0,0,0,0,0,0,0,0,0,0,0,0,0,0,0,0,0,0,0,0,0,0,0,0,0,0,0,0,0,0,0,0,0,0,0,0,0,0,0,0,0,0,0,0,0,0,0,0,0,0,0,0,0.0332,0.0332,0,0.0342,0.0342,0.0343,0.0342,0.0342,0.0342,0.0342,0.0332,0.0332,0.0332,0,0,0,0,0,0,0,0,0,0,0,0,0,0.0298,0.0299,0.0332,0.0332,0.0332,0.0342,0.0342,0.0343,0.0342,0.0342,0.0342,0.0341,0.0332,0.0332,0.0331,0,0,0,0,0,0,0,0,0,0,0,0,0,0.031,0.0299,0.0332,0.0334,0.0334,0.0342,0.0342,0.0343,0.0342,0.0342,0.0342,0.0341,0.0332,0.0332,0.0331,0.0332,0,0,0.0331,0.033,0,0,0,0,0,0,0,0,0.031,0.0312,0.0333,0.0334,0.0334,0.0341,0.0327,0.0338,0.0342,0.0338,0.0342,0.0341,0.0334,0.0333,0.0335,0.0332,0.0331,0.0331,0.033,0.033,0.033,0,0,0,0,0,0,0,0.0309,0.0311,0.0335,0.0334,0.0334,0.033,0.0331,0.0329,0.0335,0.0338,0.0338,0.0341,0.0334,0.0335,0.0334,0.0331,0.0331,0.033,0.033,0.033,0.0339,0.034,0,0,0,0,0,0,0.031,0.031,0.0335,0.0336,0.0322,0.0331,0.0332,0.0338,0.0336,0.0336,0.0341,0.0341,0.0336,0.0335,0.0334,0.0352,0.033,0.033,0.033,0.0339,0.0339,0.034,0,0,0,0,0,0,0.031,0.0313,0.0334,0.0324,0.0326,0.0331,0.0338,0.0339,0.0341,0.0338,0.0338,0.0343,0.0335,0.0334,0.0339,0.0351,0.033,0.033,0.0338,0.0339,0.034,0.0376,0,0,0,0,0,0,0.0309,0.0312,0.0315,0.0324,0.0327,0.0344,0.0338,0.0339,0.0343,0.0343,0.034,0.0339,0.0335,0.0339,0.0338,0.035,0.0329,0.0338,0.0339,0.0339,0.0375,0.0378,0.0381,0,0,0,0,0,0.0307,0.0314,0.0315,0.0318,0.0331,0.0344,0.0345,0.0348,0.0344,0.0348,0.0347,0.0339,0.0343,0.0339,0.0338,0.035,0.0338,0.0338,0.0339,0.0373,0.0377,0.0381,0,0,0,0,0,0,0.0297,0.0315,0.0316,0.0327,0.0336,0.0344,0.0349,0.0349,0.0352,0.0351,0.0345,0.0344,0.0352,0.0345,0.034,0.0354,0.0339,0.034,0.0365,0.0369,0.0372,0.0383,0.0329,0,0,0,0,0,0.0297,0.031,0.0322,0.033,0.0336,0.0342,0.0346,0.0349,0.0354,0.0355,0.0354,0.0352,0.0355,0.0357,0.0356,0.0364,0.0358,0.037,0.0373,0.0376,0.0384,0.0388,0.0392,0.0343,0.0343,0.0343,0,0,0.0293,0.0306,0.0312,0.0329,0.0336,0.0352,0.0344,0.0355,0.0369,0.0353,0.0368,0.0363,0.0359,0.0371,0.0373,0.0366,0.0386,0.0377,0.038,0.0387,0.0389,0.0394,0.0398,0.0344,0.0343,0.0343,0,0,0.03,0.0306,0.0322,0.0334,0.035,0.0357,0.0362,0.0373,0.0378,0.0391,0.0385,0.0389,0.0391,0.0395,0.0396,0.0415,0.0403,0.0412,0.044,0.0443,0.0448,0.0451,0.0448,0.0451,0.0415,0.0415,0.0415,0,0.0295,0.032,0.0326,0.0347,0.0361,0.0362,0.0384,0.039,0.0401,0.0411,0.04,0.0414,0.0405,0.0426,0.0433,0.0424,0.0421,0.0426,0.0448,0.0452,0.0455,0.045,0.0453,0.0417,0.0416,0.0416,0.0416,0,0.0318,0.0337,0.0348,0.0378,0.0391,0.041,0.0424,0.0435,0.0439,0.0447,0.0465,0.0457,0.0467,0.0463,0.0454,0.0475,0.0463,0.0452,0.044,0.0463,0.0456,0.0458,0.0419,0.0419,0.0418,0.0418,0,0,0.0314,0.0356,0.0361,0.0385,0.0412,0.043,0.0453,0.0479,0.0502,0.0503,0.0534,0.053,0.0525,0.0526,0.0515,0.0516,0.0528,0.0496,0.0495,0.0495,0.0533,0.0525,0.0527,0.0522,0.0522,0.0523,0.0518,0,0.0332,0.0378,0.0394,0.0438,0.0466,0.0479,0.0504,0.0525,0.0539,0.0568,0.0562,0.0584,0.055,0.056,0.0555,0.0543,0.0537,0.053,0.0509,0.0508,0.0501,0.053,0.0562,0.0562,0.0521,0.0521,0.0521,0,0.0354,0.0386,0.0431,0.0483,0.0495,0.0519,0.0567,0.059,0.0621,0.0633,0.0648,0.0647,0.0658,0.0623,0.0607,0.0606,0.0572,0.0552,0.0552,0.0535,0.0505,0.0533,0.0567,0.0583,0.0525,0.0525,0.0524,0,0.0363,0.0415,0.0455,0.0473,0.0525,0.0548,0.0575,0.061,0.0645,0.068,0.0715,0.0712,0.0732,0.0692,0.0648,0.0632,0.0628,0.0598,0.0556,0.0554,0.0573,0.0572,0.0625,0.0581,0.0581,0.0581,0.0581,0,0.0386,0.0419,0.0464,0.049,0.0543,0.0568,0.0625,0.0649,0.0699,0.0761,0.0752,0.0802,0.0752,0.0745,0.068,0.0635,0.0651,0.0571,0.0559,0.0586,0.0586,0.0593,0.0585,0.058,0.0581,0.0581,0.0581,0,0.0395,0.0422,0.0474,0.053,0.0551,0.0589,0.0664,0.0709,0.0748,0.0832,0.0852,0.0882,0.0876,0.0812,0.0759,0.0691,0.0649,0.0608,0.064,0.0631,0.0596,0.0589,0.0596,0.0647,0.0564,0.0564,0.0564,0,0.0406,0.0433,0.0502,0.0538,0.0566,0.0627,0.0675,0.0728,0.0788,0.089,0.0941,0.0963,0.0997,0.0911,0.0796,0.0688,0.0669,0.0634,0.0602,0.0614,0.0596,0.0578,0.062,0.0639,0.064,0.064,0.0641,0,0.0427,0.0448,0.0492,0.0565,0.0621,0.069,0.0767,0.0825,0.0908,0.0995,0.1103,0.1138,0.1066,0.0996,0.0839,0.0751,0.0673,0.0638,0.0653,0.0668,0.065,0.0688,0.0615,0.0644,0.0644,0.0644,0.0644,0.0643,0.044,0.0472,0.0528,0.0597,0.0664,0.0752,0.0823,0.0924,0.1042,0.1184,0.1207,0.1288,0.1178,0.0978,0.0868,0.0714,0.07,0.0668,0.0659,0.064,0.0693,0.0623,0.0635,0.0634,0.0634,0.0634,0.0633,0,0.0457,0.0496,0.056,0.0645,0.0718,0.0754,0.0886,0.0978,0.1137,0.1262,0.1361,0.1381,0.1241,0.1076,0.0857,0.0767,0.0744,0.0722,0.0725,0.0771,0.0717,0.0727,0.0756,0.0756,0.0756,0.0756,0.0756,0.0756,0.0467,0.0522,0.0556,0.0671,0.0736,0.0849,0.0931,0.1091,0.1216,0.1407,0.1491,0.153,0.147,0.1056,0.0867,0.0816,0.0827,0.0764,0.0793,0.0764,0.0759,0.0754,0.0764,0.0801,0.0801,0.0884,0.0885,0.0885]}],[{"header":{"parameterUnit":"m.s-1","parameterCategory":2,"la1":30.2991,"la2":30.254,"lo1":-89.0895,"lo2":-89.0444,"dy":0.0017,"dx":0.0017,"nx":28,"ny":28,"refTime":"2024-07-20T03:00:00:Z","depth":"2","parameterNumber":2,"parameterNumberName":"U-component_of_CURRENTS"},"data":[0,0,0,0,0,0,0,0,0,0,0,0,0,0,0,0,0,0,0,0,0,0,0,0,0,0,0,0,0,0,0,0,0,0,0,0,0,0,0,0,0,0,0,0,0,0,0,0,0,0,0,0,0,0,0,0,0,0,0.1739,0.1739,0,0.1726,0.1726,0.1726,0.1716,0.1716,0.1716,0.1717,0.1693,0.1692,0.1692,0,0,0,0,0,0,0,0,0,0,0,0,0,0.177,0.1769,0.1739,0.1739,0.1739,0.1726,0.1726,0.1726,0.1716,0.1716,0.1716,0.1717,0.1693,0.1692,0.1692,0,0,0,0,0,0,0,0,0,0,0,0,0,0.1755,0.1769,0.1739,0.1734,0.1733,0.1726,0.1726,0.1726,0.1716,0.1716,0.1716,0.1717,0.1694,0.1693,0.1692,0.1682,0,0,0.1688,0.1688,0,0,0,0,0,0,0,0,0.1756,0.1754,0.1735,0.1734,0.1734,0.1725,0.1729,0.1711,0.1716,0.1721,0.1717,0.1717,0.1704,0.1702,0.1697,0.1681,0.168,0.1688,0.1688,0.1687,0.1687,0,0,0,0,0,0,0,0.1757,0.1754,0.1732,0.1735,0.1734,0.1738,0.1736,0.1725,0.171,0.172,0.172,0.1722,0.1703,0.1698,0.1696,0.168,0.1688,0.1687,0.1687,0.1686,0.1711,0.1712,0,0,0,0,0,0,0.1761,0.1755,0.1732,0.1732,0.1747,0.1737,0.1735,0.1726,0.171,0.1709,0.1722,0.1721,0.1699,0.1697,0.1695,0.1725,0.1687,0.1686,0.1686,0.171,0.1711,0.1713,0,0,0,0,0,0,0.1761,0.1759,0.1733,0.1745,0.1743,0.1737,0.1727,0.1726,0.1731,0.1712,0.171,0.173,0.17,0.1697,0.1701,0.1723,0.1686,0.1685,0.1708,0.171,0.1712,0.1759,0,0,0,0,0,0,0.1762,0.1759,0.176,0.1745,0.1742,0.1737,0.1727,0.1725,0.1732,0.1732,0.1718,0.1715,0.1699,0.1703,0.17,0.1721,0.1684,0.1707,0.1709,0.1712,0.1756,0.1762,0.1768,0,0,0,0,0,0.1763,0.1761,0.1759,0.1757,0.1741,0.1738,0.1737,0.1732,0.1733,0.1737,0.1733,0.1716,0.1717,0.1703,0.1699,0.172,0.1706,0.1709,0.1711,0.1753,0.1761,0.1767,0,0,0,0,0,0,0.1775,0.1759,0.1757,0.175,0.175,0.1737,0.1742,0.174,0.174,0.1742,0.1725,0.1722,0.1738,0.1724,0.1709,0.1737,0.1712,0.1714,0.1745,0.1752,0.1758,0.1749,0.1683,0,0,0,0,0,0.1779,0.1772,0.1763,0.176,0.1761,0.1755,0.1756,0.1754,0.1749,0.175,0.1742,0.174,0.1746,0.1744,0.1743,0.175,0.1754,0.1765,0.1771,0.1776,0.1769,0.1814,0.1824,0.1722,0.1722,0.1722,0,0,0.1782,0.1774,0.177,0.1763,0.1761,0.176,0.1755,0.176,0.1764,0.1747,0.1755,0.176,0.1754,0.1768,0.1774,0.1758,0.1808,0.178,0.1784,0.1773,0.1819,0.1828,0.1837,0.1724,0.1724,0.1724,0,0,0.1781,0.178,0.1772,0.1774,0.1776,0.1774,0.1779,0.1776,0.1782,0.1791,0.1789,0.1806,0.1803,0.1807,0.1808,0.1845,0.1842,0.1854,0.187,0.1916,0.1925,0.1932,0.1951,0.196,0.1853,0.1853,0.1853,0,0.1788,0.1772,0.1773,0.177,0.1772,0.1782,0.178,0.1788,0.179,0.1798,0.18,0.1824,0.1821,0.1842,0.1859,0.1857,0.1877,0.1842,0.1924,0.1931,0.1938,0.1955,0.1965,0.1855,0.1855,0.1855,0.1855,0,0.1774,0.1772,0.1771,0.1767,0.1773,0.1776,0.1787,0.1801,0.1815,0.1822,0.1855,0.1863,0.1876,0.1889,0.1882,0.1932,0.1929,0.193,0.1904,0.1951,0.1966,0.1975,0.1859,0.1858,0.1857,0.1857,0,0,0.1756,0.1759,0.1759,0.1759,0.1772,0.1773,0.1794,0.1808,0.1828,0.185,0.188,0.19,0.1917,0.192,0.1929,0.1965,0.2033,0.1971,0.1972,0.1986,0.2126,0.1987,0.1983,0.2061,0.2063,0.2064,0.2117,0,0.1743,0.1735,0.1742,0.1745,0.1742,0.1765,0.1783,0.1805,0.1836,0.1872,0.1902,0.1938,0.1927,0.1953,0.1986,0.203,0.2059,0.2017,0.2081,0.2081,0.195,0.1989,0.182,0.1841,0.2126,0.2127,0.2128,0,0.1717,0.1718,0.1714,0.1731,0.1733,0.1743,0.1779,0.1799,0.1855,0.1886,0.193,0.1962,0.2017,0.2012,0.2091,0.2072,0.2097,0.2123,0.2126,0.1981,0.1958,0.184,0.1846,0.2142,0.2141,0.214,0.2139,0,0.1688,0.1696,0.1693,0.1697,0.172,0.1732,0.1753,0.1801,0.1834,0.1909,0.1954,0.2009,0.2062,0.2108,0.2145,0.214,0.223,0.2229,0.2119,0.2109,0.1964,0.1937,0.228,0.228,0.228,0.228,0.2279,0,0.166,0.1659,0.1681,0.1679,0.169,0.1717,0.1746,0.1782,0.1854,0.1896,0.1964,0.2011,0.2097,0.215,0.2171,0.2158,0.225,0.2117,0.2115,0.1973,0.1947,0.2204,0.2195,0.2281,0.2281,0.2281,0.228,0,0.1624,0.1636,0.1635,0.1662,0.1673,0.1684,0.1742,0.177,0.1845,0.1913,0.1947,0.2045,0.2094,0.2144,0.2223,0.2179,0.2191,0.2162,0.1969,0.1939,0.2035,0.2028,0.2049,0.2044,0.204,0.2037,0.2035,0,0.1604,0.1598,0.162,0.1626,0.1639,0.1666,0.1686,0.1757,0.1795,0.1914,0.1944,0.2027,0.2044,0.2083,0.2039,0.2023,0.2108,0.184,0.1776,0.2017,0.2013,0.2012,0.2009,0.162,0.1614,0.1609,0.1605,0,0.157,0.1579,0.1582,0.1594,0.1611,0.1629,0.1669,0.1697,0.1782,0.1831,0.1889,0.1918,0.1933,0.1828,0.1792,0.1755,0.1822,0.1736,0.2076,0.1679,0.1609,0.1606,0.162,0.1563,0.1567,0.157,0.1573,0.1574,0.155,0.1545,0.1552,0.1555,0.1573,0.1583,0.1576,0.1619,0.1651,0.1691,0.1766,0.1733,0.1727,0.1565,0.1493,0.1414,0.1541,0.1464,0.1481,0.1503,0.1418,0.1343,0.1231,0.1233,0.1235,0.1236,0.1238,0,0.1516,0.1514,0.1515,0.1508,0.1494,0.1533,0.1551,0.152,0.1507,0.1544,0.1551,0.1381,0.1284,0.1277,0.1092,0.1044,0.1061,0.0984,0.1021,0.1062,0.1099,0.0996,0.0696,0.0695,0.0694,0.0692,0,0,0.1502,0.1479,0.1469,0.1425,0.1426,0.1395,0.1388,0.1341,0.1335,0.1267,0.1216,0.1277,0.1271,0.1014,0.0936,0.0801,0.0938,0.0748,0.118,0.127,0.1306,0.1363,0.1248,0,0,0,0,0]},{"header":{"parameterUnit":"m.s-1","parameterCategory":2,"la1":30.2991,"la2":30.254,"lo1":-89.0895,"lo2":-89.0444,"dy":0.0017,"dx":0.0017,"nx":28,"ny":28,"refTime":"2024-07-20T03:00:00:Z","depth":"2","parameterNumber":3,"parameterNumberName":"V-component_of_CURRENTS"},"data":[0,0,0,0,0,0,0,0,0,0,0,0,0,0,0,0,0,0,0,0,0,0,0,0,0,0,0,0,0,0,0,0,0,0,0,0,0,0,0,0,0,0,0,0,0,0,0,0,0,0,0,0,0,0,0,0,0,0,0.0192,0.0192,0,0.0202,0.0202,0.0202,0.0205,0.0205,0.0205,0.0205,0.0202,0.0202,0.0202,0,0,0,0,0,0,0,0,0,0,0,0,0,0.0163,0.0163,0.0192,0.0192,0.0192,0.0202,0.0202,0.0202,0.0205,0.0205,0.0205,0.0205,0.0202,0.0202,0.0202,0,0,0,0,0,0,0,0,0,0,0,0,0,0.0174,0.0164,0.0192,0.0196,0.0196,0.0202,0.0202,0.0202,0.0205,0.0205,0.0205,0.0206,0.0202,0.0202,0.0202,0.02,0,0,0.0201,0.0201,0,0,0,0,0,0,0,0,0.0173,0.0175,0.0195,0.0195,0.0196,0.0203,0.0191,0.0201,0.0205,0.0201,0.0205,0.0206,0.0202,0.0201,0.0202,0.02,0.02,0.0201,0.0201,0.0201,0.0201,0,0,0,0,0,0,0,0.0172,0.0174,0.0195,0.0195,0.0196,0.0193,0.0194,0.0192,0.02,0.0201,0.0202,0.0204,0.0202,0.0203,0.0202,0.02,0.0201,0.0201,0.0201,0.0201,0.021,0.021,0,0,0,0,0,0,0.0173,0.0174,0.0195,0.0196,0.0185,0.0193,0.0195,0.02,0.0201,0.0201,0.0204,0.0204,0.0203,0.0203,0.0202,0.0222,0.0201,0.0201,0.0201,0.0209,0.021,0.021,0,0,0,0,0,0,0.0173,0.0175,0.0194,0.0185,0.0187,0.0194,0.02,0.02,0.0205,0.0203,0.0203,0.0208,0.0203,0.0202,0.0208,0.0221,0.0201,0.0201,0.0209,0.0209,0.021,0.0247,0,0,0,0,0,0,0.0172,0.0175,0.0178,0.0185,0.0188,0.0203,0.02,0.0201,0.0206,0.0207,0.0206,0.0206,0.0203,0.0208,0.0208,0.022,0.0201,0.0208,0.0209,0.021,0.0245,0.0248,0.0251,0,0,0,0,0,0.0171,0.0178,0.0179,0.0181,0.0193,0.0204,0.0205,0.0208,0.0207,0.0212,0.0212,0.0206,0.0211,0.0208,0.0208,0.022,0.0208,0.0209,0.021,0.0244,0.0248,0.0251,0,0,0,0,0,0,0.0164,0.0179,0.018,0.019,0.0198,0.0205,0.021,0.0211,0.0215,0.0216,0.0211,0.0211,0.022,0.0213,0.0209,0.0224,0.0209,0.0209,0.0235,0.0238,0.0241,0.0252,0.02,0,0,0,0,0,0.0164,0.0177,0.0186,0.0194,0.0199,0.0204,0.0208,0.0212,0.0217,0.0219,0.022,0.0219,0.0222,0.0224,0.0224,0.0232,0.0226,0.0238,0.0242,0.0244,0.0252,0.0254,0.0258,0.0212,0.0212,0.0212,0,0,0.0163,0.0174,0.0179,0.0194,0.02,0.0215,0.0207,0.0218,0.0232,0.0218,0.0234,0.0229,0.0225,0.0237,0.024,0.0234,0.0254,0.0245,0.0248,0.0254,0.0255,0.026,0.0264,0.0213,0.0213,0.0213,0,0,0.0171,0.0177,0.0192,0.0202,0.0216,0.0222,0.0227,0.0237,0.0243,0.0256,0.025,0.0254,0.0257,0.026,0.0261,0.0279,0.0269,0.0277,0.0305,0.0306,0.031,0.0314,0.0311,0.0314,0.028,0.028,0.028,0,0.0169,0.0191,0.0196,0.0215,0.0228,0.0228,0.0248,0.0254,0.0265,0.0274,0.0266,0.0278,0.027,0.0289,0.0296,0.0287,0.0285,0.0292,0.0311,0.0314,0.0317,0.0314,0.0316,0.0282,0.0282,0.0282,0.0282,0,0.0191,0.0209,0.0219,0.0247,0.0259,0.0276,0.0288,0.0299,0.0304,0.0311,0.0328,0.032,0.033,0.0325,0.0317,0.0336,0.0327,0.0314,0.0304,0.0324,0.0319,0.0321,0.0285,0.0284,0.0284,0.0283,0,0,0.0191,0.0229,0.0234,0.0256,0.028,0.0296,0.0318,0.0342,0.0363,0.0365,0.0395,0.039,0.0386,0.0386,0.0375,0.0375,0.0387,0.0357,0.0356,0.0358,0.0391,0.0384,0.0385,0.038,0.0381,0.0381,0.0379,0,0.021,0.0253,0.0266,0.0309,0.0334,0.0345,0.0368,0.0387,0.0401,0.0427,0.0421,0.0442,0.0409,0.0421,0.0414,0.0399,0.0395,0.0389,0.0368,0.0367,0.0361,0.0388,0.0375,0.0372,0.0381,0.0381,0.0381,0,0.0233,0.0261,0.0305,0.0353,0.0364,0.0387,0.0432,0.0453,0.048,0.0492,0.0506,0.0504,0.0512,0.048,0.0461,0.046,0.043,0.041,0.0409,0.0393,0.0364,0.0353,0.0376,0.0385,0.0385,0.0384,0.0384,0,0.0243,0.0292,0.0331,0.0347,0.0394,0.0417,0.0442,0.0474,0.0508,0.054,0.0573,0.0566,0.0586,0.0545,0.0502,0.0486,0.0479,0.0449,0.0412,0.041,0.039,0.0387,0.0434,0.0434,0.0434,0.0434,0.0434,0,0.0266,0.0298,0.0341,0.0365,0.0417,0.0439,0.0496,0.0517,0.0564,0.0623,0.0611,0.0657,0.0605,0.0596,0.0532,0.0487,0.0501,0.0427,0.0415,0.0402,0.0399,0.0402,0.0398,0.0434,0.0434,0.0434,0.0434,0,0.0277,0.0302,0.0352,0.0405,0.0426,0.0464,0.0537,0.058,0.0616,0.0695,0.0715,0.0737,0.0726,0.0662,0.0608,0.0542,0.0486,0.0462,0.045,0.0436,0.0405,0.0403,0.0421,0.0421,0.042,0.042,0.042,0,0.0287,0.0313,0.038,0.0416,0.0444,0.0504,0.0551,0.0602,0.0659,0.0751,0.0798,0.0815,0.0836,0.0748,0.0636,0.053,0.0505,0.0442,0.0405,0.042,0.0406,0.0405,0.0403,0.0389,0.0389,0.0389,0.0388,0,0.0307,0.0329,0.0372,0.0444,0.05,0.0568,0.0643,0.0699,0.0776,0.0851,0.0942,0.0965,0.089,0.079,0.0641,0.0555,0.0455,0.0433,0.0464,0.0396,0.039,0.0377,0.0376,0.0386,0.0386,0.0386,0.0386,0.0387,0.0321,0.0352,0.0408,0.0478,0.0544,0.0631,0.0699,0.0791,0.0897,0.1015,0.1029,0.1059,0.0936,0.0747,0.0604,0.0447,0.0463,0.0386,0.0386,0.0387,0.0385,0.0381,0.0373,0.0373,0.0374,0.0374,0.0374,0,0.034,0.038,0.0441,0.0526,0.0599,0.0637,0.0762,0.084,0.0977,0.1067,0.1139,0.1011,0.0893,0.0739,0.0515,0.0387,0.036,0.0324,0.0319,0.0322,0.0326,0.032,0.029,0.029,0.0289,0.0289,0,0,0.0352,0.0406,0.0439,0.0554,0.062,0.0732,0.081,0.0934,0.1026,0.112,0.1134,0.113,0.0948,0.0763,0.0578,0.044,0.0409,0.0401,0.0482,0.0502,0.0507,0.0374,0.0371,0,0,0,0,0]}],[{"header":{"parameterUnit":"m.s-1","parameterCategory":2,"la1":30.2991,"la2":30.254,"lo1":-89.0895,"lo2":-89.0444,"dy":0.0017,"dx":0.0017,"nx":28,"ny":28,"refTime":"2024-07-20T03:00:00:Z","depth":"4","parameterNumber":2,"parameterNumberName":"U-component_of_CURRENTS"},"data":[0,0,0,0,0,0,0,0,0,0,0,0,0,0,0,0,0,0,0,0,0,0,0,0,0,0,0,0,0,0,0,0,0,0,0,0,0,0,0,0,0,0,0,0,0,0,0,0,0,0,0,0,0,0,0,0,0,0,0.0847,0.0848,0,0.0862,0.0863,0.0863,0.0897,0.0898,0.0899,0.09,0.0963,0.0964,0.0965,0,0,0,0,0,0,0,0,0,0,0,0,0,0.0869,0.0868,0.0847,0.0848,0.0848,0.0862,0.0863,0.0863,0.0897,0.0898,0.0899,0.09,0.0963,0.0964,0.0965,0,0,0,0,0,0,0,0,0,0,0,0,0,0.0868,0.0868,0.0847,0.0868,0.087,0.0862,0.0863,0.0863,0.0897,0.0898,0.0899,0.0901,0.0962,0.0964,0.0965,0.095,0,0,0.0969,0.097,0,0,0,0,0,0,0,0,0.0868,0.0867,0.0864,0.0866,0.0868,0.088,0.0893,0.0895,0.0897,0.0886,0.09,0.0901,0.0939,0.0943,0.0941,0.0953,0.0956,0.0969,0.097,0.0971,0.0971,0,0,0,0,0,0,0,0.0868,0.0867,0.0853,0.0865,0.0867,0.0883,0.0884,0.0894,0.0906,0.0887,0.089,0.0892,0.0941,0.0939,0.0943,0.0956,0.0969,0.0971,0.0971,0.0972,0.1036,0.1037,0,0,0,0,0,0,0.0865,0.0867,0.0852,0.0853,0.0872,0.0881,0.0883,0.0874,0.0905,0.091,0.0891,0.0894,0.0936,0.0941,0.0945,0.1002,0.0971,0.0972,0.0973,0.1035,0.1036,0.1037,0,0,0,0,0,0,0.0866,0.0863,0.0852,0.0862,0.0862,0.088,0.087,0.0874,0.0899,0.0908,0.0914,0.0916,0.0938,0.0943,0.0975,0.1002,0.0973,0.0974,0.1034,0.1035,0.1037,0.1068,0,0,0,0,0,0,0.0866,0.0863,0.0871,0.0861,0.0861,0.0864,0.087,0.0874,0.0898,0.0902,0.093,0.0936,0.0939,0.0973,0.0976,0.1003,0.0975,0.1033,0.1035,0.1036,0.1066,0.107,0.1074,0,0,0,0,0,0.0866,0.0866,0.0871,0.087,0.0865,0.0864,0.0866,0.0882,0.0898,0.091,0.0931,0.0936,0.0986,0.0974,0.0978,0.1006,0.1032,0.1034,0.1036,0.1064,0.1069,0.1074,0,0,0,0,0,0,0.0883,0.0869,0.0874,0.0871,0.0877,0.0871,0.0886,0.0895,0.0919,0.0933,0.0943,0.0949,0.0988,0.099,0.0977,0.1029,0.1012,0.1014,0.1032,0.1037,0.1041,0.1045,0.0976,0,0,0,0,0,0.0887,0.0884,0.0877,0.088,0.0883,0.089,0.0898,0.0908,0.092,0.0933,0.0952,0.0974,0.0993,0.101,0.1025,0.105,0.1056,0.1072,0.1076,0.1079,0.1086,0.1111,0.1118,0.1043,0.1043,0.1043,0,0,0.0895,0.0889,0.0888,0.0884,0.0891,0.0894,0.0898,0.0915,0.0928,0.0935,0.0971,0.099,0.1003,0.1033,0.1051,0.1043,0.1105,0.1082,0.1084,0.1089,0.1113,0.1121,0.1127,0.1045,0.1044,0.1044,0,0,0.0901,0.0903,0.0902,0.0906,0.0917,0.0917,0.0928,0.0936,0.0956,0.0982,0.0995,0.103,0.1056,0.1072,0.1082,0.1116,0.1124,0.1127,0.1154,0.1178,0.1184,0.119,0.1211,0.1219,0.113,0.113,0.113,0,0.0917,0.0906,0.0906,0.0908,0.0915,0.093,0.0935,0.0949,0.0972,0.0992,0.1002,0.1057,0.1073,0.1109,0.1127,0.1127,0.1141,0.1134,0.1183,0.1189,0.1194,0.1215,0.1223,0.1132,0.1132,0.1131,0.1131,0,0.0911,0.0916,0.0919,0.0921,0.0931,0.094,0.0952,0.098,0.1007,0.1021,0.1074,0.1097,0.1133,0.1145,0.1149,0.1198,0.1197,0.1185,0.1171,0.1204,0.1223,0.1231,0.1134,0.1134,0.1133,0.1133,0,0,0.0907,0.0913,0.0918,0.0924,0.0939,0.0944,0.0974,0.0999,0.1025,0.1066,0.1104,0.1149,0.1176,0.1189,0.1205,0.1231,0.1284,0.1231,0.1232,0.1252,0.1344,0.1223,0.1219,0.1284,0.1285,0.1286,0.1344,0,0.0906,0.091,0.0915,0.093,0.0932,0.0959,0.0982,0.1014,0.1045,0.1087,0.1133,0.1176,0.1187,0.1218,0.1247,0.1275,0.1305,0.127,0.1309,0.131,0.1198,0.1224,0.1291,0.1349,0.1351,0.1352,0.1353,0,0.0892,0.0898,0.0911,0.0933,0.0939,0.0958,0.1001,0.1023,0.1082,0.1112,0.1167,0.12,0.1265,0.1262,0.1334,0.1315,0.1339,0.1354,0.1356,0.1237,0.1202,0.1309,0.1366,0.1365,0.1364,0.1363,0.1362,0,0.0875,0.0893,0.0906,0.0913,0.0941,0.0969,0.0994,0.1041,0.1067,0.1138,0.1171,0.1239,0.1288,0.1329,0.1373,0.1364,0.1437,0.1422,0.1336,0.1329,0.1408,0.1401,0.1471,0.1471,0.1471,0.1471,0.1471,0,0.0854,0.0867,0.0907,0.0912,0.0939,0.0968,0.1004,0.1039,0.1095,0.1122,0.1192,0.1222,0.1309,0.1358,0.1388,0.1381,0.1452,0.1345,0.1333,0.142,0.1414,0.1413,0.1406,0.1473,0.1473,0.1472,0.1472,0,0.0824,0.0849,0.0866,0.0911,0.0929,0.0952,0.1006,0.1023,0.1088,0.1128,0.116,0.1237,0.1292,0.1356,0.1423,0.1384,0.1397,0.1379,0.1476,0.1469,0.1272,0.1266,0.1283,0.1279,0.1276,0.1274,0.1271,0,0.0803,0.081,0.0862,0.0876,0.09,0.094,0.0959,0.1019,0.1028,0.1116,0.1124,0.1211,0.1254,0.1263,0.1324,0.1361,0.1347,0.1339,0.1296,0.1265,0.1253,0.1252,0.125,0.1266,0.1265,0.1264,0.1264,0,0.0764,0.0797,0.0814,0.0843,0.087,0.0879,0.091,0.091,0.0971,0.1051,0.1071,0.1103,0.1153,0.1196,0.1234,0.1255,0.133,0.1305,0.1311,0.1271,0.1244,0.1235,0.1237,0.1252,0.1254,0.1255,0.1256,0,0.0744,0.0747,0.078,0.0797,0.0824,0.0802,0.0822,0.0834,0.0858,0.0954,0.0958,0.1054,0.1141,0.114,0.1172,0.1182,0.1161,0.1114,0.113,0.1143,0.1066,0.101,0.0938,0,0,0,0,0,0.0716,0.0712,0.0725,0.0724,0.0746,0.0759,0.0779,0.0797,0.086,0.0851,0.0903,0.0948,0.0987,0.1029,0.1014,0.1091,0.1157,0.1063,0.1108,0.119,0.1203,0.1122,0,0,0,0,0,0,0.0694,0.0709,0.0705,0.0664,0.0654,0.0653,0.0664,0.0698,0.069,0.0777,0.0812,0.0885,0.0948,0.101,0.1004,0.1014,0.1015,0.1125,0.1121,0.1182,0.1194,0.1205,0.1126,0,0,0,0,0]},{"header":{"parameterUnit":"m.s-1","parameterCategory":2,"la1":30.2991,"la2":30.254,"lo1":-89.0895,"lo2":-89.0444,"dy":0.0017,"dx":0.0017,"nx":28,"ny":28,"refTime":"2024-07-20T03:00:00:Z","depth":"4","parameterNumber":3,"parameterNumberName":"V-component_of_CURRENTS"},"data":[0,0,0,0,0,0,0,0,0,0,0,0,0,0,0,0,0,0,0,0,0,0,0,0,0,0,0,0,0,0,0,0,0,0,0,0,0,0,0,0,0,0,0,0,0,0,0,0,0,0,0,0,0,0,0,0,0,0,0.0067,0.0067,0,0.007,0.007,0.007,0.0071,0.0071,0.0071,0.0071,0.0073,0.0073,0.0073,0,0,0,0,0,0,0,0,0,0,0,0,0,0.0053,0.0053,0.0067,0.0067,0.0067,0.007,0.007,0.007,0.0071,0.0071,0.0071,0.0071,0.0073,0.0073,0.0073,0,0,0,0,0,0,0,0,0,0,0,0,0,0.0058,0.0053,0.0067,0.0068,0.0068,0.007,0.007,0.007,0.0071,0.0071,0.0071,0.0071,0.0073,0.0073,0.0073,0.0073,0,0,0.0073,0.0073,0,0,0,0,0,0,0,0,0.0057,0.0058,0.0067,0.0068,0.0068,0.007,0.0066,0.0071,0.0071,0.007,0.0071,0.0071,0.0072,0.0072,0.0072,0.0073,0.0073,0.0073,0.0073,0.0073,0.0073,0,0,0,0,0,0,0,0.0057,0.0058,0.0068,0.0068,0.0068,0.0065,0.0066,0.0067,0.0071,0.007,0.007,0.007,0.0072,0.0072,0.0072,0.0073,0.0073,0.0073,0.0073,0.0073,0.0079,0.0079,0,0,0,0,0,0,0.0057,0.0058,0.0068,0.0068,0.0063,0.0065,0.0066,0.0069,0.0071,0.0071,0.007,0.0071,0.0072,0.0072,0.0072,0.0086,0.0073,0.0073,0.0073,0.0079,0.0079,0.0079,0,0,0,0,0,0,0.0057,0.0058,0.0067,0.0063,0.0064,0.0066,0.0069,0.0069,0.0071,0.0071,0.0071,0.0072,0.0072,0.0072,0.0076,0.0085,0.0073,0.0073,0.0079,0.0079,0.0079,0.0104,0,0,0,0,0,0,0.0057,0.0058,0.006,0.0063,0.0064,0.0072,0.0069,0.0069,0.0072,0.0072,0.0073,0.0073,0.0072,0.0076,0.0076,0.0085,0.0073,0.0079,0.0079,0.0079,0.0103,0.0105,0.0106,0,0,0,0,0,0.0056,0.0061,0.0061,0.0062,0.0067,0.0073,0.0073,0.0074,0.0072,0.0075,0.0075,0.0073,0.0078,0.0077,0.0077,0.0085,0.0079,0.0079,0.0079,0.0102,0.0104,0.0106,0,0,0,0,0,0,0.0055,0.0062,0.0061,0.0068,0.0071,0.0073,0.0076,0.0075,0.0078,0.0078,0.0076,0.0076,0.0082,0.0078,0.0077,0.0087,0.0077,0.0078,0.0095,0.0097,0.0098,0.0111,0.0073,0,0,0,0,0,0.0056,0.0064,0.0066,0.0072,0.0073,0.0074,0.0076,0.0078,0.008,0.0081,0.0082,0.0081,0.0083,0.0086,0.0086,0.0092,0.0089,0.0096,0.0098,0.01,0.011,0.0109,0.0112,0.008,0.008,0.008,0,0,0.0056,0.0062,0.0065,0.0072,0.0074,0.0083,0.0076,0.0082,0.009,0.0081,0.0092,0.0088,0.0085,0.0093,0.0096,0.0092,0.0106,0.01,0.0102,0.0111,0.011,0.0113,0.0116,0.008,0.008,0.008,0,0,0.0064,0.0066,0.0075,0.0081,0.0087,0.009,0.0092,0.0096,0.0099,0.0107,0.0102,0.0105,0.0106,0.0109,0.011,0.0121,0.0115,0.0117,0.0141,0.014,0.0143,0.0146,0.0143,0.0145,0.012,0.012,0.012,0,0.0064,0.0077,0.0078,0.009,0.0098,0.0094,0.0107,0.0109,0.0115,0.0122,0.0114,0.0123,0.0116,0.0131,0.0134,0.0127,0.0124,0.0133,0.0143,0.0146,0.0148,0.0145,0.0147,0.0121,0.0121,0.0121,0.0121,0,0.0079,0.0091,0.0098,0.0113,0.0121,0.0132,0.0136,0.0144,0.0145,0.0149,0.0162,0.0154,0.0163,0.0156,0.0149,0.0163,0.0155,0.0145,0.014,0.0153,0.0148,0.015,0.0123,0.0123,0.0122,0.0122,0,0,0.0081,0.0105,0.0108,0.0123,0.0136,0.0147,0.0161,0.0178,0.0194,0.0193,0.0216,0.021,0.0207,0.0208,0.0197,0.0195,0.0202,0.0179,0.0179,0.0181,0.0201,0.0189,0.0189,0.0193,0.0193,0.0194,0.0191,0,0.0095,0.0123,0.0132,0.0161,0.0176,0.0183,0.0201,0.0215,0.0223,0.0242,0.0237,0.0252,0.0226,0.0234,0.0227,0.0211,0.0208,0.0204,0.0185,0.0185,0.0176,0.0192,0.0195,0.0192,0.0193,0.0193,0.0193,0,0.0109,0.0128,0.0159,0.0194,0.0202,0.0219,0.0253,0.0269,0.029,0.0298,0.0309,0.0305,0.031,0.0283,0.0264,0.0263,0.0238,0.0218,0.0218,0.0201,0.0176,0.0177,0.0196,0.0196,0.0196,0.0195,0.0195,0,0.0115,0.015,0.0177,0.0188,0.0223,0.0243,0.0264,0.0288,0.0315,0.0339,0.0363,0.0357,0.0367,0.0334,0.0295,0.0282,0.0271,0.0246,0.0212,0.021,0.0211,0.0208,0.0235,0.0235,0.0235,0.0235,0.0235,0,0.0129,0.0152,0.0185,0.0202,0.0243,0.0261,0.0308,0.0325,0.0363,0.0406,0.0397,0.0423,0.0381,0.0369,0.0318,0.0276,0.0289,0.0224,0.0213,0.022,0.0218,0.0212,0.0209,0.0235,0.0235,0.0235,0.0235,0,0.0132,0.0152,0.0188,0.023,0.0248,0.0279,0.0343,0.0378,0.0407,0.0464,0.0479,0.0483,0.0465,0.0419,0.037,0.0315,0.0268,0.0248,0.0268,0.0256,0.0199,0.0198,0.0209,0.0208,0.0208,0.0208,0.0207,0,0.0136,0.0154,0.0207,0.0236,0.0259,0.0311,0.0352,0.0396,0.044,0.0499,0.053,0.0534,0.0526,0.0454,0.0388,0.0301,0.0278,0.0248,0.0214,0.0211,0.0199,0.0198,0.0197,0.0207,0.0207,0.0207,0.0207,0,0.0143,0.0162,0.0195,0.0254,0.0302,0.036,0.0422,0.0459,0.0519,0.0545,0.0581,0.0551,0.0532,0.0459,0.0399,0.0329,0.0262,0.0244,0.0243,0.0211,0.0209,0.0197,0.0196,0.0205,0.0206,0.0206,0.0206,0,0.015,0.0173,0.0219,0.0275,0.0335,0.04,0.0431,0.0492,0.0538,0.06,0.0606,0.0585,0.0572,0.0474,0.0415,0.0352,0.0319,0.0274,0.0271,0.0271,0.0281,0.0287,0.0307,0,0,0,0,0,0.0158,0.0191,0.0239,0.0304,0.0365,0.0403,0.0479,0.0509,0.0565,0.0595,0.0605,0.0586,0.0509,0.0473,0.0409,0.039,0.0298,0.0308,0.0242,0.0199,0.0201,0.0199,0,0,0,0,0,0,0.0166,0.021,0.0239,0.0323,0.0369,0.0443,0.0492,0.0528,0.0547,0.0585,0.0549,0.0544,0.047,0.0546,0.0399,0.0381,0.0323,0.0278,0.0276,0.0199,0.02,0.0201,0.02,0,0,0,0,0]}]]